| time (UTC) | temp C | wind direction | speed KPH | gust KPH | rain 1hr cm | rain 24hr cm | rain mn cm | humidity % | barometer mb |
| 20260507070516 | 15 | 315 | 25.7 | 27.4 | 0.00 | 0.64 | 0.36 | 86 | 1009.8 |
| 20260507065516 | 15 | 315 | 24.1 | 27.4 | 0.00 | 0.64 | 0.36 | 88 | 1009.7 |
| 20260507064516 | 15 | 315 | 20.9 | 25.7 | 0.00 | 0.64 | 0.36 | 88 | 1009.5 |
| 20260507063516 | 15 | 338 | 20.9 | 25.7 | 0.05 | 0.64 | 0.36 | 88 | 1009.2 |
| 20260507062516 | 15 | 338 | 22.5 | 25.7 | 0.15 | 0.64 | 0.36 | 88 | 1009.4 |
| 20260507061536 | 15 | 338 | 24.1 | 29.0 | 0.23 | 0.64 | 0.36 | 88 | 1009.6 |
| 20260507060516 | 15 | 338 | 20.9 | 27.4 | 0.28 | 0.64 | 0.36 | 91 | 1009.8 |
| 20260507055516 | 15 | 338 | 22.5 | 27.4 | 0.30 | 0.64 | 0.36 | 90 | 1009.7 |
| 20260507054536 | 16 | 338 | 19.3 | 22.5 | 0.36 | 0.64 | 0.36 | 88 | 1009.6 |
| 20260507053516 | 16 | 338 | 12.9 | 17.7 | 0.30 | 0.58 | 0.30 | 87 | 1009.5 |
| 20260507052536 | 17 | 338 | 16.1 | 19.3 | 0.20 | 0.48 | 0.20 | 85 | 1009.8 |
| 20260507051516 | 17 | 338 | 17.7 | 22.5 | 0.13 | 0.41 | 0.13 | 84 | 1010.0 |
| 20260507050516 | 17 | 0 | 19.3 | 20.9 | 0.08 | 0.36 | 0.08 | 83 | 1009.7 |
| 20260507045516 | 18 | 315 | 19.3 | 22.5 | 0.05 | 0.33 | 0.05 | 85 | 1009.9 |
| 20260507044515 | 18 | 315 | 20.9 | 22.5 | 0.00 | 0.28 | 0.00 | 84 | 1009.8 |
| 20260507043515 | 18 | 315 | 16.1 | 17.7 | 0.00 | 0.28 | 0.00 | 84 | 1009.3 |
| 20260507042515 | 18 | 315 | 14.5 | 19.3 | 0.00 | 0.28 | 0.00 | 84 | 1009.2 |
| 20260507041515 | 18 | 315 | 9.7 | 12.9 | 0.00 | 0.28 | 0.00 | 83 | 1008.8 |
| 20260507040516 | 18 | 315 | 14.5 | 16.1 | 0.00 | 0.28 | 0.00 | 81 | 1008.7 |
| 20260507035517 | 19 | 293 | 19.3 | 22.5 | 0.00 | 0.28 | 0.28 | 80 | 1009.1 |
| 20260507034517 | 19 | 293 | 14.5 | 17.7 | 0.00 | 0.28 | 0.28 | 80 | 1009.1 |
| 20260507033516 | 19 | 293 | 17.7 | 20.9 | 0.00 | 0.28 | 0.28 | 84 | 1009.1 |
| 20260507032517 | 19 | 315 | 17.7 | 19.3 | 0.00 | 0.28 | 0.28 | 84 | 1008.8 |
| 20260507031517 | 19 | 315 | 17.7 | 19.3 | 0.00 | 0.28 | 0.28 | 87 | 1008.7 |
| 20260507030515 | 20 | 270 | 3.2 | 4.8 | 0.00 | 0.28 | 0.28 | 89 | 1008.6 |
| 20260507025517 | 19 | 270 | 3.2 | 4.8 | 0.00 | 0.28 | 0.28 | 90 | 1008.7 |
| 20260507024537 | 18 | 0.0 | 0.0 | 0.00 | 0.28 | 0.28 | 90 | 1008.1 | |
| 20260507023557 | 18 | 0.0 | 0.0 | 0.00 | 0.28 | 0.28 | 90 | 1008.2 | |
| 20260507022516 | 18 | 0.0 | 0.0 | 0.00 | 0.28 | 0.28 | 89 | 1008.1 | |
| 20260507021517 | 19 | 0.0 | 0.0 | 0.00 | 0.28 | 0.28 | 89 | 1008.3 | |
| 20260507020516 | 19 | 0.0 | 0.0 | 0.00 | 0.28 | 0.28 | 89 | 1008.2 | |
| 20260507015516 | 19 | 0.0 | 0.0 | 0.00 | 0.28 | 0.28 | 88 | 1007.9 | |
| 20260507014516 | 19 | 0.0 | 0.0 | 0.00 | 0.28 | 0.28 | 88 | 1008.6 | |
| 20260507013517 | 19 | 0.0 | 0.0 | 0.00 | 0.28 | 0.28 | 88 | 1008.7 | |
| 20260507012517 | 19 | 0.0 | 0.0 | 0.00 | 0.28 | 0.28 | 88 | 1008.7 | |
| 20260507011537 | 20 | 0.0 | 0.0 | 0.00 | 0.28 | 0.28 | 87 | 1008.9 | |
| 20260507010517 | 20 | 0.0 | 0.0 | 0.00 | 0.28 | 0.28 | 87 | 1008.6 | |
| 20260507005516 | 20 | 0.0 | 0.0 | 0.00 | 0.28 | 0.28 | 86 | 1008.5 | |
| 20260507004517 | 20 | 0.0 | 0.0 | 0.00 | 0.28 | 0.28 | 86 | 1008.3 | |
| 20260507003516 | 20 | 0.0 | 0.0 | 0.00 | 0.28 | 0.28 | 85 | 1008.3 | |
| 20260507002516 | 20 | 0.0 | 0.0 | 0.00 | 0.28 | 0.28 | 84 | 1008.2 | |
| 20260507001516 | 21 | 0.0 | 0.0 | 0.00 | 0.28 | 0.28 | 83 | 1008.4 | |
| 20260507000516 | 21 | 0.0 | 0.0 | 0.00 | 0.28 | 0.28 | 82 | 1008.2 | |
| 20260506235516 | 21 | 0.0 | 0.0 | 0.00 | 0.28 | 0.28 | 81 | 1008.3 | |
| 20260506234516 | 21 | 0.0 | 0.0 | 0.00 | 0.28 | 0.28 | 81 | 1007.9 | |
| 20260506233557 | 21 | 248 | 1.6 | 3.2 | 0.00 | 0.28 | 0.28 | 81 | 1007.9 |
| 20260506232516 | 21 | 0.0 | 3.2 | 0.00 | 0.28 | 0.28 | 80 | 1007.5 | |
| 20260506231537 | 21 | 0.0 | 1.6 | 0.00 | 0.28 | 0.28 | 80 | 1007.6 | |
| 20260506230516 | 21 | 0.0 | 0.0 | 0.00 | 0.28 | 0.28 | 80 | 1007.8 | |
| 20260506225516 | 21 | 248 | 3.2 | 6.4 | 0.00 | 0.28 | 0.28 | 80 | 1007.5 |
| 20260506224536 | 21 | 270 | 3.2 | 9.7 | 0.00 | 0.28 | 0.28 | 79 | 1007.6 |
| 20260506223516 | 22 | 270 | 1.6 | 4.8 | 0.00 | 0.28 | 0.28 | 79 | 1007.6 |
| 20260506222536 | 22 | 248 | 3.2 | 6.4 | 0.00 | 0.28 | 0.28 | 79 | 1007.6 |
| 20260506221516 | 22 | 225 | 3.2 | 6.4 | 0.00 | 0.28 | 0.28 | 79 | 1007.8 |
| 20260506220516 | 22 | 0.0 | 0.0 | 0.00 | 0.28 | 0.28 | 79 | 1007.6 | |
| 20260506215516 | 22 | 225 | 3.2 | 6.4 | 0.00 | 0.28 | 0.28 | 79 | 1007.7 |
| 20260506214516 | 22 | 0.0 | 3.2 | 0.00 | 0.28 | 0.28 | 78 | 1007.6 | |
| 20260506213516 | 22 | 270 | 3.2 | 8.0 | 0.00 | 0.28 | 0.28 | 79 | 1007.5 |
| 20260506212539 | 22 | 248 | 3.2 | 8.0 | 0.00 | 0.28 | 0.28 | 79 | 1007.4 |
| 20260506211516 | 22 | 225 | 3.2 | 9.7 | 0.00 | 0.28 | 0.28 | 79 | 1007.4 |
| 20260506210536 | 22 | 225 | 4.8 | 14.5 | 0.00 | 0.28 | 0.28 | 78 | 1007.2 |
| 20260506205516 | 22 | 248 | 1.6 | 8.0 | 0.00 | 0.28 | 0.28 | 79 | 1007.1 |
| 20260506204516 | 22 | 248 | 8.0 | 12.9 | 0.00 | 0.28 | 0.28 | 78 | 1007.1 |
| 20260506203516 | 22 | 203 | 6.4 | 12.9 | 0.00 | 0.28 | 0.28 | 79 | 1007.0 |
| 20260506202516 | 22 | 203 | 3.2 | 9.7 | 0.00 | 0.28 | 0.28 | 79 | 1007.1 |
| 20260506201516 | 22 | 180 | 6.4 | 11.3 | 0.00 | 0.28 | 0.28 | 79 | 1007.1 |
| 20260506200536 | 21 | 203 | 6.4 | 11.3 | 0.00 | 0.28 | 0.28 | 79 | 1007.1 |
| 20260506195516 | 21 | 0.0 | 0.0 | 0.00 | 0.28 | 0.28 | 79 | 1007.0 | |
| 20260506194516 | 22 | 180 | 8.0 | 20.9 | 0.00 | 0.28 | 0.28 | 78 | 1007.2 |
| 20260506193516 | 22 | 0.0 | 1.6 | 0.00 | 0.28 | 0.28 | 79 | 1007.2 | |
| 20260506192516 | 21 | 270 | 1.6 | 4.8 | 0.00 | 0.28 | 0.28 | 79 | 1007.3 |
| 20260506191519 | 21 | 248 | 3.2 | 6.4 | 0.00 | 0.28 | 0.28 | 79 | 1007.4 |
| 20260506190516 | 21 | 248 | 1.6 | 8.0 | 0.00 | 0.28 | 0.28 | 80 | 1007.5 |
| 20260506185516 | 21 | 203 | 3.2 | 6.4 | 0.00 | 0.28 | 0.28 | 80 | 1007.5 |
| 20260506184516 | 21 | 225 | 4.8 | 6.4 | 0.00 | 0.28 | 0.28 | 81 | 1007.8 |
| 20260506183516 | 21 | 203 | 9.7 | 16.1 | 0.00 | 0.28 | 0.28 | 81 | 1007.8 |
| 20260506182516 | 21 | 203 | 14.5 | 25.7 | 0.00 | 0.28 | 0.28 | 81 | 1008.0 |
| 20260506181516 | 20 | 315 | 3.2 | 4.8 | 0.00 | 0.28 | 0.28 | 82 | 1008.0 |
| 20260506180516 | 20 | 270 | 9.7 | 17.7 | 0.00 | 0.28 | 0.28 | 83 | 1008.2 |
| 20260506175519 | 20 | 203 | 3.2 | 14.5 | 0.00 | 0.28 | 0.28 | 84 | 1008.3 |
| 20260506174516 | 20 | 248 | 1.6 | 6.4 | 0.00 | 0.28 | 0.28 | 84 | 1008.3 |
| 20260506173515 | 20 | 203 | 6.4 | 11.3 | 0.00 | 0.28 | 0.28 | 86 | 1008.3 |
| 20260506172516 | 19 | 225 | 3.2 | 12.9 | 0.00 | 0.28 | 0.28 | 86 | 1008.5 |
| 20260506171515 | 19 | 180 | 6.4 | 29.0 | 0.00 | 0.28 | 0.28 | 88 | 1008.4 |
| 20260506170515 | 18 | 225 | 1.6 | 4.8 | 0.00 | 0.28 | 0.28 | 90 | 1008.4 |
| 20260506165515 | 18 | 248 | 6.4 | 17.7 | 0.00 | 0.28 | 0.28 | 91 | 1008.8 |
| 20260506164516 | 18 | 158 | 6.4 | 11.3 | 0.03 | 0.28 | 0.28 | 91 | 1008.7 |
| 20260506163516 | 18 | 158 | 6.4 | 20.9 | 0.03 | 0.28 | 0.28 | 93 | 1008.5 |
| 20260506162536 | 17 | 203 | 6.4 | 19.3 | 0.03 | 0.28 | 0.28 | 94 | 1008.4 |
| 20260506161515 | 17 | 203 | 3.2 | 9.7 | 0.03 | 0.28 | 0.28 | 93 | 1009.0 |
| 20260506160516 | 17 | 203 | 1.6 | 3.2 | 0.05 | 0.28 | 0.28 | 93 | 1009.0 |
| 20260506155516 | 17 | 158 | 3.2 | 8.0 | 0.13 | 0.28 | 0.28 | 93 | 1008.9 |
| 20260506154516 | 17 | 203 | 1.6 | 6.4 | 0.18 | 0.25 | 0.25 | 93 | 1008.8 |
| 20260506153516 | 17 | 203 | 4.8 | 8.0 | 0.20 | 0.25 | 0.25 | 93 | 1009.1 |
| 20260506152515 | 17 | 180 | 3.2 | 6.4 | 0.20 | 0.25 | 0.25 | 93 | 1009.7 |
| 20260506151616 | 17 | 180 | 1.6 | 3.2 | 0.23 | 0.25 | 0.25 | 92 | 1009.8 |
| 20260506150515 | 17 | 225 | 1.6 | 3.2 | 0.23 | 0.23 | 0.23 | 91 | 1009.9 |
| 20260506145515 | 17 | 225 | 3.2 | 8.0 | 0.15 | 0.15 | 0.15 | 91 | 1010.0 |
| 20260506144515 | 17 | 203 | 3.2 | 6.4 | 0.08 | 0.08 | 0.08 | 90 | 1009.8 |
| 20260506143515 | 17 | 203 | 3.2 | 8.0 | 0.05 | 0.05 | 0.05 | 89 | 1009.9 |
| 20260506142515 | 17 | 203 | 3.2 | 6.4 | 0.05 | 0.05 | 0.05 | 88 | 1010.0 |
| 20260506141515 | 17 | 270 | 3.2 | 6.4 | 0.03 | 0.03 | 0.03 | 87 | 1010.0 |
| 20260506140535 | 18 | 203 | 1.6 | 6.4 | 0.00 | 0.00 | 0.00 | 86 | 1010.0 |
| 20260506135515 | 18 | 180 | 1.6 | 3.2 | 0.00 | 0.00 | 0.00 | 84 | 1010.2 |
| 20260506134535 | 18 | 0.0 | 4.8 | 0.00 | 0.00 | 0.00 | 82 | 1010.3 | |
| 20260506133515 | 18 | 203 | 3.2 | 9.7 | 0.00 | 0.00 | 0.00 | 81 | 1010.0 |
| 20260506132515 | 18 | 203 | 3.2 | 14.5 | 0.00 | 0.00 | 0.00 | 81 | 1009.9 |
| 20260506131515 | 18 | 203 | 6.4 | 12.9 | 0.00 | 0.00 | 0.00 | 80 | 1009.8 |
| 20260506130515 | 18 | 180 | 4.8 | 12.9 | 0.00 | 0.00 | 0.00 | 80 | 1009.7 |
| 20260506125535 | 18 | 203 | 4.8 | 14.5 | 0.00 | 0.00 | 0.00 | 81 | 1009.7 |
| 20260506124555 | 18 | 203 | 3.2 | 6.4 | 0.00 | 0.00 | 0.00 | 82 | 1009.8 |
| 20260506123535 | 18 | 203 | 4.8 | 9.7 | 0.00 | 0.00 | 0.00 | 82 | 1009.9 |
| 20260506122515 | 18 | 225 | 6.4 | 19.3 | 0.00 | 0.00 | 0.00 | 83 | 1010.1 |
| 20260506121515 | 18 | 180 | 8.0 | 14.5 | 0.00 | 0.00 | 0.00 | 83 | 1010.0 |
| 20260506120535 | 18 | 203 | 9.7 | 27.4 | 0.00 | 0.00 | 0.00 | 83 | 1009.9 |
| 20260506115556 | 18 | 225 | 6.4 | 14.5 | 0.00 | 0.00 | 0.00 | 83 | 1009.6 |
| 20260506114515 | 18 | 158 | 6.4 | 12.9 | 0.00 | 0.00 | 0.00 | 83 | 1009.6 |
| 20260506113515 | 18 | 225 | 1.6 | 3.2 | 0.00 | 0.00 | 0.00 | 84 | 1009.6 |
| 20260506112515 | 18 | 135 | 6.4 | 12.9 | 0.00 | 0.00 | 0.00 | 85 | 1009.6 |
| 20260506111515 | 18 | 158 | 6.4 | 14.5 | 0.00 | 0.00 | 0.00 | 85 | 1009.5 |
| 20260506110535 | 18 | 180 | 6.4 | 14.5 | 0.00 | 0.00 | 0.00 | 85 | 1009.4 |
| 20260506105515 | 18 | 180 | 4.8 | 14.5 | 0.00 | 0.00 | 0.00 | 84 | 1009.4 |
| 20260506104515 | 18 | 158 | 1.6 | 6.4 | 0.00 | 0.00 | 0.00 | 85 | 1009.3 |
| 20260506103520 | 17 | 225 | 3.2 | 8.0 | 0.00 | 0.00 | 0.00 | 86 | 1009.3 |
| 20260506102517 | 17 | 248 | 1.6 | 4.8 | 0.00 | 0.00 | 0.00 | 86 | 1009.3 |
| 20260506101517 | 17 | 180 | 6.4 | 9.7 | 0.00 | 0.00 | 0.00 | 86 | 1009.2 |
| 20260506100517 | 17 | 180 | 3.2 | 8.0 | 0.00 | 0.00 | 0.00 | 86 | 1009.2 |
| 20260506095517 | 17 | 180 | 1.6 | 8.0 | 0.00 | 0.00 | 0.00 | 86 | 1009.3 |
| 20260506094537 | 17 | 158 | 8.0 | 14.5 | 0.00 | 0.00 | 0.00 | 86 | 1009.3 |
| 20260506093517 | 18 | 180 | 3.2 | 11.3 | 0.00 | 0.00 | 0.00 | 85 | 1009.3 |
| 20260506092517 | 18 | 180 | 6.4 | 22.5 | 0.00 | 0.00 | 0.00 | 85 | 1009.3 |
| 20260506091517 | 18 | 203 | 3.2 | 8.0 | 0.00 | 0.00 | 0.00 | 85 | 1009.3 |
| 20260506090517 | 18 | 180 | 6.4 | 17.7 | 0.00 | 0.00 | 0.00 | 85 | 1009.4 |
| 20260506085517 | 18 | 180 | 8.0 | 14.5 | 0.00 | 0.00 | 0.00 | 85 | 1009.3 |
| 20260506084517 | 18 | 158 | 8.0 | 16.1 | 0.00 | 0.00 | 0.00 | 85 | 1009.3 |
| 20260506083537 | 18 | 225 | 8.0 | 14.5 | 0.00 | 0.00 | 0.00 | 85 | 1009.6 |
| 20260506082515 | 18 | 203 | 3.2 | 6.4 | 0.00 | 0.00 | 0.00 | 84 | 1009.4 |
| 20260506081517 | 18 | 158 | 1.6 | 3.2 | 0.00 | 0.00 | 0.00 | 85 | 1009.4 |
| 20260506080516 | 18 | 158 | 3.2 | 8.0 | 0.00 | 0.00 | 0.00 | 85 | 1009.3 |
| 20260506073517 | 18 | 158 | 6.4 | 9.7 | 0.00 | 0.00 | 0.00 | 84 | 1009.6 |
| 20260506072557 | 18 | 203 | 3.2 | 14.5 | 0.00 | 0.00 | 0.00 | 84 | 1009.6 |
| 20260506071516 | 18 | 180 | 4.8 | 8.0 | 0.00 | 0.00 | 0.00 | 83 | 1009.7 |